Powrót do katalogu

STARLINK-32714

AktywnyŁącznośćVLEO
NORAD 62499·PAYLOAD·🇺🇸 United States

Wystrzelony Jan 6, 2025 z Cape Canaveral Space Force Station

Loading…

Następne Przeloty (najbliższe 24 godziny)

TLE

ŚwieżeSource: CelesTrak SupGP

Epoka: Sep 15, 2026, 02:10 UTC

1 62499C 25003N   26258.09076389  .00035847  00000+0  12983-2 0  2584
2 62499  43.0007 299.6898 0001387 261.3959 107.2869 15.27563159    19

Śledź STARLINK-32714 w czasie rzeczywistym z AllMySat

Download on the App Store